| time (UTC) | temp F | wind direction | speed knots | gust knots | rain 1hr in | rain 24hr in | rain mn in | humidity % | barometer mb |
| 20260506162531 | 62 | 65 | 0.0 | 3.5 | 0.07 | 0.13 | 0.13 | 92 | 1007.6 |
| 20260506162036 | 62 | 22 | 0.0 | 5.2 | 0.06 | 0.12 | 0.12 | 93 | 1007.6 |
| 20260506161550 | 62 | 176 | 1.7 | 7.0 | 0.06 | 0.12 | 0.12 | 92 | 1007.5 |
| 20260506161033 | 62 | 118 | 0.9 | 7.0 | 0.06 | 0.11 | 0.11 | 92 | 1007.7 |
| 20260506160532 | 62 | 49 | 1.7 | 7.0 | 0.06 | 0.11 | 0.11 | 92 | 1007.7 |
| 20260506160119 | 62 | 232 | 0.9 | 6.1 | 0.07 | 0.11 | 0.11 | 92 | 1008.0 |
| 20260506155531 | 62 | 62 | 0.9 | 10.4 | 0.06 | 0.10 | 0.10 | 91 | 1008.5 |
| 20260506155032 | 62 | 41 | 1.7 | 10.4 | 0.06 | 0.09 | 0.09 | 91 | 1008.6 |
| 20260506154549 | 62 | 23 | 1.7 | 7.8 | 0.05 | 0.08 | 0.08 | 91 | 1008.8 |
| 20260506154033 | 62 | 160 | 0.9 | 6.1 | 0.05 | 0.07 | 0.07 | 90 | 1008.8 |
| 20260506153532 | 62 | 175 | 2.6 | 6.1 | 0.06 | 0.07 | 0.07 | 90 | 1008.8 |
| 20260506153047 | 62 | 134 | 0.9 | 3.5 | 0.06 | 0.06 | 0.06 | 90 | 1008.8 |
| 20260506152534 | 63 | 0 | 0.0 | 3.5 | 0.06 | 0.06 | 0.06 | 90 | 1008.8 |
| 20260506152033 | 63 | 294 | 0.0 | 2.6 | 0.06 | 0.06 | 0.06 | 90 | 1008.6 |
| 20260506151544 | 63 | 0 | 0.0 | 2.6 | 0.06 | 0.06 | 0.06 | 90 | 1008.6 |
| 20260506151032 | 63 | 176 | 0.9 | 2.6 | 0.05 | 0.05 | 0.05 | 90 | 1008.5 |
| 20260506150530 | 63 | 124 | 0.0 | 2.6 | 0.05 | 0.05 | 0.05 | 90 | 1008.4 |
| 20260506150049 | 63 | 33 | 0.0 | 2.6 | 0.04 | 0.04 | 0.04 | 89 | 1008.6 |
| 20260506145537 | 63 | 0 | 0.0 | 3.5 | 0.04 | 0.04 | 0.04 | 88 | 1008.5 |
| 20260506145033 | 64 | 161 | 0.9 | 3.5 | 0.03 | 0.03 | 0.03 | 88 | 1008.4 |
| 20260506144559 | 64 | 0 | 0.0 | 3.5 | 0.03 | 0.03 | 0.03 | 87 | 1008.5 |
| 20260506144032 | 64 | 84 | 0.0 | 1.7 | 0.02 | 0.02 | 0.02 | 85 | 1008.7 |
| 20260506143532 | 65 | 193 | 0.9 | 3.5 | 0.01 | 0.01 | 0.01 | 85 | 1008.8 |
| 20260506143048 | 65 | 103 | 0.9 | 4.3 | 0.00 | 0.00 | 0.00 | 83 | 1008.8 |
| 20260506142531 | 65 | 157 | 0.9 | 5.2 | 0.00 | 0.00 | 0.00 | 82 | 1008.8 |
| 20260506142034 | 65 | 160 | 0.9 | 5.2 | 0.00 | 0.00 | 0.00 | 82 | 1008.6 |
| 20260506141541 | 65 | 285 | 1.7 | 5.2 | 0.00 | 0.00 | 0.00 | 81 | 1008.6 |
| 20260506141034 | 65 | 158 | 0.9 | 3.5 | 0.00 | 0.00 | 0.00 | 82 | 1008.6 |
| 20260506140536 | 65 | 64 | 0.0 | 2.6 | 0.00 | 0.00 | 0.00 | 82 | 1008.5 |
| 20260506140045 | 65 | 0 | 0.0 | 2.6 | 0.00 | 0.00 | 0.00 | 82 | 1008.5 |
| 20260506135531 | 65 | 266 | 0.0 | 4.3 | 0.00 | 0.00 | 0.00 | 82 | 1008.5 |
| 20260506135032 | 65 | 236 | 1.7 | 4.3 | 0.00 | 0.00 | 0.00 | 80 | 1008.6 |
| 20260506134548 | 65 | 153 | 0.9 | 4.3 | 0.00 | 0.00 | 0.00 | 80 | 1008.6 |
| 20260506134035 | 65 | 0 | 0.0 | 4.3 | 0.00 | 0.00 | 0.00 | 80 | 1008.7 |
| 20260506133533 | 65 | 113 | 0.9 | 7.8 | 0.00 | 0.00 | 0.00 | 80 | 1008.7 |
| 20260506133048 | 65 | 140 | 0.9 | 7.8 | 0.00 | 0.00 | 0.00 | 80 | 1008.7 |
| 20260506132532 | 65 | 283 | 0.0 | 5.2 | 0.00 | 0.00 | 0.00 | 79 | 1008.8 |
| 20260506132035 | 65 | 220 | 0.9 | 5.2 | 0.00 | 0.00 | 0.00 | 79 | 1008.8 |
| 20260506131540 | 66 | 218 | 0.0 | 5.2 | 0.00 | 0.00 | 0.00 | 79 | 1008.9 |
| 20260506131031 | 66 | 145 | 0.9 | 5.2 | 0.00 | 0.00 | 0.00 | 78 | 1008.8 |
| 20260506130533 | 66 | 355 | 0.0 | 5.2 | 0.00 | 0.00 | 0.00 | 77 | 1008.9 |
| 20260506130057 | 66 | 136 | 0.0 | 5.2 | 0.00 | 0.00 | 0.00 | 77 | 1008.8 |
| 20260506125531 | 66 | 132 | 0.9 | 5.2 | 0.00 | 0.00 | 0.00 | 77 | 1008.9 |
| 20260506125033 | 66 | 84 | 0.0 | 5.2 | 0.00 | 0.00 | 0.00 | 77 | 1008.8 |
| 20260506124548 | 66 | 66 | 0.9 | 5.2 | 0.00 | 0.00 | 0.00 | 77 | 1008.7 |
| 20260506124032 | 66 | 245 | 0.9 | 5.2 | 0.00 | 0.00 | 0.00 | 77 | 1008.7 |
| 20260506123532 | 66 | 134 | 0.9 | 4.3 | 0.00 | 0.00 | 0.00 | 77 | 1008.6 |
| 20260506123043 | 66 | 273 | 0.9 | 4.3 | 0.00 | 0.00 | 0.00 | 77 | 1008.5 |
| 20260506122533 | 66 | 48 | 0.0 | 4.3 | 0.00 | 0.00 | 0.00 | 77 | 1008.5 |
| 20260506122033 | 66 | 118 | 0.9 | 3.5 | 0.00 | 0.00 | 0.00 | 78 | 1008.5 |
| 20260506121545 | 66 | 68 | 0.9 | 5.2 | 0.00 | 0.00 | 0.00 | 77 | 1008.6 |
| 20260506121032 | 66 | 129 | 0.9 | 6.1 | 0.00 | 0.00 | 0.00 | 78 | 1008.7 |
| 20260506120532 | 66 | 56 | 1.7 | 7.8 | 0.00 | 0.00 | 0.00 | 77 | 1008.6 |
| 20260506120044 | 66 | 64 | 0.9 | 7.8 | 0.00 | 0.00 | 0.00 | 77 | 1008.6 |
| 20260506115534 | 66 | 0 | 1.7 | 7.8 | 0.00 | 0.00 | 0.00 | 77 | 1008.7 |
| 20260506115031 | 66 | 349 | 0.9 | 4.3 | 0.00 | 0.00 | 0.00 | 77 | 1008.5 |
| 20260506114542 | 66 | 136 | 0.9 | 7.8 | 0.00 | 0.00 | 0.00 | 77 | 1008.6 |
| 20260506114032 | 66 | 76 | 1.7 | 7.8 | 0.00 | 0.00 | 0.00 | 77 | 1008.6 |
| 20260506113534 | 66 | 235 | 0.9 | 4.3 | 0.00 | 0.00 | 0.00 | 77 | 1008.7 |
| 20260506113042 | 66 | 172 | 1.7 | 7.8 | 0.00 | 0.00 | 0.00 | 77 | 1008.6 |
| 20260506112534 | 66 | 113 | 0.9 | 7.8 | 0.00 | 0.00 | 0.00 | 77 | 1008.6 |
| 20260506112031 | 66 | 101 | 1.7 | 7.8 | 0.00 | 0.00 | 0.00 | 77 | 1008.7 |
| 20260506111543 | 66 | 125 | 0.9 | 4.3 | 0.00 | 0.00 | 0.00 | 77 | 1008.6 |
| 20260506111031 | 65 | 219 | 0.9 | 4.3 | 0.00 | 0.00 | 0.00 | 78 | 1008.4 |
| 20260506110535 | 65 | 107 | 0.9 | 4.3 | 0.00 | 0.00 | 0.00 | 78 | 1008.4 |
| 20260506110047 | 66 | 148 | 0.0 | 4.3 | 0.00 | 0.00 | 0.00 | 78 | 1008.4 |
| 20260506105533 | 65 | 191 | 0.9 | 4.3 | 0.00 | 0.00 | 0.00 | 78 | 1008.1 |
| 20260506105033 | 65 | 114 | 0.9 | 2.6 | 0.00 | 0.00 | 0.00 | 78 | 1008.2 |
| 20260506104541 | 65 | 0 | 0.9 | 1.7 | 0.00 | 0.00 | 0.00 | 78 | 1008.2 |
| 20260506104031 | 65 | 122 | 0.0 | 2.6 | 0.00 | 0.00 | 0.00 | 77 | 1008.1 |
| 20260506103534 | 66 | 0 | 0.0 | 2.6 | 0.00 | 0.00 | 0.00 | 77 | 1008.0 |
| 20260506103052 | 66 | 4 | 0.9 | 3.5 | 0.00 | 0.00 | 0.00 | 77 | 1008.0 |
| 20260506102532 | 66 | 149 | 0.0 | 3.5 | 0.00 | 0.00 | 0.00 | 77 | 1007.8 |
| 20260506102032 | 66 | 0 | 0.9 | 3.5 | 0.00 | 0.00 | 0.00 | 76 | 1008.0 |
| 20260506101544 | 66 | 88 | 0.9 | 4.3 | 0.00 | 0.00 | 0.00 | 76 | 1007.9 |
| 20260506101032 | 66 | 79 | 0.9 | 4.3 | 0.00 | 0.00 | 0.00 | 76 | 1008.0 |
| 20260506100535 | 66 | 172 | 0.9 | 2.6 | 0.00 | 0.00 | 0.00 | 76 | 1008.2 |
| 20260506100042 | 66 | 335 | 0.9 | 7.0 | 0.00 | 0.00 | 0.00 | 76 | 1008.1 |
| 20260506095533 | 66 | 109 | 1.7 | 7.0 | 0.00 | 0.02 | 0.00 | 76 | 1008.2 |
| 20260506095033 | 66 | 231 | 0.9 | 6.1 | 0.00 | 0.02 | 0.00 | 75 | 1008.1 |
| 20260506094550 | 66 | 124 | 1.7 | 6.1 | 0.00 | 0.02 | 0.00 | 75 | 1008.0 |
| 20260506094032 | 66 | 8 | 0.9 | 5.2 | 0.00 | 0.02 | 0.00 | 75 | 1007.9 |
| 20260506093532 | 66 | 151 | 0.9 | 5.2 | 0.00 | 0.02 | 0.00 | 75 | 1008.2 |
| 20260506093040 | 66 | 120 | 0.9 | 5.2 | 0.00 | 0.02 | 0.00 | 75 | 1008.1 |
| 20260506092532 | 66 | 0 | 1.7 | 5.2 | 0.00 | 0.02 | 0.00 | 75 | 1008.0 |
| 20260506092034 | 66 | 30 | 0.0 | 5.2 | 0.00 | 0.02 | 0.00 | 75 | 1007.9 |
| 20260506091548 | 66 | 138 | 1.7 | 7.8 | 0.00 | 0.02 | 0.00 | 75 | 1007.8 |
| 20260506091032 | 66 | 153 | 1.7 | 7.8 | 0.00 | 0.02 | 0.00 | 75 | 1008.0 |
| 20260506090532 | 66 | 0 | 0.0 | 6.1 | 0.00 | 0.02 | 0.00 | 75 | 1008.0 |
| 20260506090050 | 66 | 61 | 0.9 | 6.1 | 0.00 | 0.02 | 0.00 | 74 | 1008.1 |
| 20260506085533 | 66 | 145 | 0.9 | 6.1 | 0.00 | 0.02 | 0.00 | 74 | 1008.1 |
| 20260506085031 | 66 | 98 | 0.9 | 5.2 | 0.00 | 0.02 | 0.00 | 74 | 1008.2 |
| 20260506084600 | 66 | 0 | 0.9 | 3.5 | 0.00 | 0.02 | 0.00 | 74 | 1008.3 |
| 20260506084031 | 66 | 0 | 0.9 | 5.2 | 0.00 | 0.02 | 0.00 | 74 | 1008.3 |
| 20260506083532 | 66 | 28 | 1.7 | 7.0 | 0.00 | 0.02 | 0.00 | 74 | 1008.3 |
| 20260506083047 | 66 | 339 | 0.9 | 7.0 | 0.00 | 0.02 | 0.00 | 74 | 1008.2 |
| 20260506082532 | 65 | 181 | 1.7 | 7.0 | 0.00 | 0.02 | 0.00 | 74 | 1008.3 |
| 20260506082032 | 65 | 112 | 0.0 | 5.2 | 0.00 | 0.02 | 0.00 | 75 | 1008.3 |
| 20260506081542 | 65 | 119 | 0.0 | 3.5 | 0.00 | 0.02 | 0.00 | 75 | 1008.5 |
| 20260506081033 | 64 | 91 | 0.9 | 7.0 | 0.00 | 0.02 | 0.00 | 75 | 1008.3 |
| 20260506080532 | 64 | 0 | 0.9 | 7.0 | 0.00 | 0.02 | 0.00 | 75 | 1008.3 |
| 20260506073056 | 64 | 0 | 0.0 | 2.6 | 0.00 | 0.02 | 0.00 | 74 | 1008.3 |
| 20260506072531 | 65 | 0 | 0.0 | 1.7 | 0.00 | 0.02 | 0.00 | 73 | 1008.4 |
| 20260506072032 | 65 | 0 | 0.0 | 1.7 | 0.00 | 0.02 | 0.00 | 72 | 1008.5 |
| 20260506071547 | 65 | 94 | 0.0 | 1.7 | 0.00 | 0.02 | 0.00 | 72 | 1008.5 |
| 20260506071036 | 65 | 90 | 0.9 | 1.7 | 0.00 | 0.02 | 0.00 | 71 | 1008.5 |
| 20260506070532 | 65 | 0 | 0.0 | 1.7 | 0.00 | 0.02 | 0.00 | 71 | 1008.6 |
| 20260506062034 | 67 | 281 | 0.0 | 2.6 | 0.00 | 0.02 | 0.00 | 68 | 1008.8 |
| 20260506061556 | 67 | 0 | 0.0 | 2.6 | 0.00 | 0.02 | 0.00 | 67 | 1008.8 |
| 20260506061035 | 67 | 139 | 0.9 | 1.7 | 0.00 | 0.02 | 0.00 | 67 | 1009.0 |
| 20260506060534 | 67 | 121 | 0.0 | 1.7 | 0.00 | 0.02 | 0.00 | 67 | 1009.0 |
| 20260506051032 | 65 | 107 | 0.0 | 3.5 | 0.00 | 0.02 | 0.00 | 70 | 1009.2 |
| 20260506050534 | 64 | 288 | 0.9 | 3.5 | 0.00 | 0.02 | 0.00 | 72 | 1009.2 |
| 20260506045033 | 64 | 0 | 0.0 | 0.9 | 0.00 | 0.02 | 0.00 | 72 | 1009.2 |
| 20260506044552 | 64 | 75 | 0.0 | 2.6 | 0.00 | 0.02 | 0.00 | 72 | 1009.2 |
| 20260506044033 | 64 | 139 | 0.0 | 2.6 | 0.00 | 0.02 | 0.00 | 72 | 1009.2 |
| 20260506043532 | 64 | 139 | 0.9 | 2.6 | 0.00 | 0.02 | 0.00 | 72 | 1009.3 |
| 20260506043046 | 64 | 82 | 0.0 | 0.9 | 0.00 | 0.02 | 0.00 | 71 | 1009.2 |
| 20260506042532 | 65 | 0 | 0.0 | 0.9 | 0.00 | 0.02 | 0.00 | 69 | 1009.2 |
| 20260506042032 | 65 | 0 | 0.0 | 1.7 | 0.00 | 0.02 | 0.00 | 69 | 1009.4 |
| 20260506041544 | 65 | 63 | 0.0 | 1.7 | 0.00 | 0.02 | 0.00 | 68 | 1009.3 |
| 20260506041031 | 65 | 65 | 0.0 | 1.7 | 0.00 | 0.02 | 0.00 | 68 | 1009.2 |
| 20260506040532 | 65 | 0 | 0.0 | 1.7 | 0.00 | 0.02 | 0.00 | 67 | 1009.2 |
| 20260506040047 | 66 | 0 | 0.0 | 1.7 | 0.00 | 0.02 | 0.00 | 66 | 1009.3 |
| 20260506035532 | 66 | 91 | 0.0 | 1.7 | 0.00 | 0.02 | 0.02 | 66 | 1009.3 |
| 20260506035033 | 66 | 74 | 0.0 | 1.7 | 0.00 | 0.02 | 0.02 | 65 | 1009.2 |
| 20260506034550 | 67 | 89 | 0.0 | 2.6 | 0.00 | 0.02 | 0.02 | 64 | 1009.2 |
| 20260506034033 | 67 | 0 | 0.9 | 2.6 | 0.00 | 0.02 | 0.02 | 63 | 1009.2 |
| 20260506033533 | 68 | 226 | 0.0 | 4.3 | 0.00 | 0.02 | 0.02 | 61 | 1009.2 |
| 20260506033049 | 69 | 105 | 0.0 | 4.3 | 0.00 | 0.02 | 0.02 | 60 | 1009.1 |
| 20260506032532 | 70 | 90 | 0.0 | 6.1 | 0.00 | 0.02 | 0.02 | 58 | 1009.0 |
| 20260506032032 | 70 | 128 | 0.9 | 6.1 | 0.00 | 0.02 | 0.02 | 57 | 1009.0 |
| 20260506031551 | 71 | 266 | 0.9 | 6.1 | 0.00 | 0.02 | 0.02 | 56 | 1009.0 |
| 20260506031035 | 71 | 291 | 0.0 | 4.3 | 0.00 | 0.02 | 0.02 | 56 | 1009.0 |
| 20260506030531 | 71 | 297 | 0.0 | 4.3 | 0.00 | 0.02 | 0.02 | 56 | 1008.9 |
| 20260506030052 | 71 | 307 | 0.0 | 4.3 | 0.00 | 0.02 | 0.02 | 55 | 1009.0 |
| 20260506025532 | 71 | 0 | 0.9 | 3.5 | 0.00 | 0.02 | 0.02 | 55 | 1008.9 |
| 20260506025036 | 71 | 274 | 0.0 | 3.5 | 0.00 | 0.02 | 0.02 | 54 | 1008.8 |
| 20260506024558 | 72 | 332 | 0.9 | 3.5 | 0.00 | 0.02 | 0.02 | 53 | 1008.9 |
| 20260506024032 | 72 | 103 | 0.0 | 4.3 | 0.00 | 0.02 | 0.02 | 53 | 1009.0 |
| 20260506023536 | 72 | 76 | 0.9 | 6.1 | 0.00 | 0.02 | 0.02 | 53 | 1009.0 |
| 20260506023045 | 72 | 44 | 0.9 | 6.1 | 0.00 | 0.02 | 0.02 | 52 | 1009.0 |
| 20260506022532 | 72 | 266 | 0.9 | 6.1 | 0.00 | 0.02 | 0.02 | 52 | 1009.0 |
| 20260506022034 | 72 | 332 | 0.9 | 5.2 | 0.00 | 0.02 | 0.02 | 52 | 1008.9 |
| 20260506021601 | 72 | 311 | 0.9 | 5.2 | 0.00 | 0.02 | 0.02 | 52 | 1008.9 |
| 20260506021033 | 72 | 115 | 0.9 | 7.8 | 0.00 | 0.02 | 0.02 | 52 | 1008.9 |
| 20260506020533 | 73 | 101 | 1.7 | 7.8 | 0.00 | 0.02 | 0.02 | 53 | 1008.9 |
| 20260506020040 | 72 | 11 | 0.9 | 4.3 | 0.00 | 0.02 | 0.02 | 53 | 1008.8 |
| 20260506015532 | 73 | 0 | 0.9 | 4.3 | 0.00 | 0.02 | 0.02 | 52 | 1008.8 |
| 20260506015034 | 73 | 0 | 0.0 | 5.2 | 0.00 | 0.02 | 0.02 | 53 | 1008.8 |
| 20260506014545 | 73 | 0 | 0.9 | 5.2 | 0.00 | 0.02 | 0.02 | 52 | 1008.6 |
| 20260506014040 | 73 | 167 | 0.9 | 5.2 | 0.00 | 0.02 | 0.02 | 52 | 1008.7 |
| 20260506013532 | 73 | 0 | 0.9 | 6.1 | 0.00 | 0.02 | 0.02 | 51 | 1008.5 |
| 20260506013055 | 73 | 113 | 1.7 | 6.1 | 0.00 | 0.02 | 0.02 | 51 | 1008.4 |
| 20260506012533 | 73 | 150 | 1.7 | 6.1 | 0.00 | 0.02 | 0.02 | 51 | 1008.3 |
| 20260506012033 | 73 | 103 | 0.9 | 3.5 | 0.00 | 0.02 | 0.02 | 51 | 1008.3 |
| 20260506011601 | 73 | 87 | 0.0 | 2.6 | 0.00 | 0.02 | 0.02 | 51 | 1008.2 |
| 20260506011033 | 73 | 0 | 0.0 | 2.6 | 0.00 | 0.02 | 0.02 | 49 | 1008.3 |
| 20260506010532 | 74 | 79 | 0.0 | 2.6 | 0.00 | 0.02 | 0.02 | 49 | 1008.2 |
| 20260506010054 | 74 | 0 | 0.9 | 6.1 | 0.00 | 0.02 | 0.02 | 48 | 1008.1 |
| 20260506005533 | 75 | 164 | 0.9 | 6.1 | 0.00 | 0.02 | 0.02 | 47 | 1008.1 |
| 20260506005032 | 75 | 88 | 1.7 | 6.1 | 0.00 | 0.02 | 0.02 | 47 | 1008.1 |
| 20260506004546 | 74 | 103 | 0.9 | 6.1 | 0.00 | 0.02 | 0.02 | 47 | 1008.0 |
| 20260506004033 | 75 | 77 | 0.9 | 4.3 | 0.00 | 0.02 | 0.02 | 46 | 1008.0 |
| 20260506003535 | 75 | 98 | 0.9 | 4.3 | 0.00 | 0.02 | 0.02 | 47 | 1007.9 |
| 20260506003105 | 75 | 139 | 0.9 | 4.3 | 0.00 | 0.02 | 0.02 | 46 | 1007.8 |
| 20260506002535 | 75 | 213 | 0.9 | 4.3 | 0.00 | 0.02 | 0.02 | 46 | 1007.7 |
| 20260506002032 | 75 | 197 | 0.9 | 4.3 | 0.00 | 0.02 | 0.02 | 45 | 1007.6 |
| 20260506001550 | 75 | 153 | 0.9 | 4.3 | 0.00 | 0.02 | 0.02 | 45 | 1007.7 |
| 20260506001034 | 76 | 345 | 0.9 | 3.5 | 0.00 | 0.02 | 0.02 | 44 | 1007.6 |
| 20260506000533 | 76 | 0 | 0.9 | 3.5 | 0.00 | 0.02 | 0.02 | 44 | 1007.6 |
| 20260506000049 | 76 | 30 | 0.9 | 5.2 | 0.00 | 0.02 | 0.02 | 43 | 1007.6 |
| 20260505235535 | 76 | 330 | 0.9 | 6.1 | 0.00 | 0.02 | 0.02 | 43 | 1007.6 |
| 20260505235035 | 77 | 61 | 0.9 | 6.1 | 0.00 | 0.02 | 0.02 | 43 | 1007.4 |
| 20260505234545 | 77 | 0 | 0.9 | 6.1 | 0.00 | 0.02 | 0.02 | 43 | 1007.5 |
| 20260505234034 | 77 | 311 | 1.7 | 8.7 | 0.00 | 0.02 | 0.02 | 43 | 1007.4 |
| 20260505233534 | 77 | 148 | 1.7 | 8.7 | 0.00 | 0.02 | 0.02 | 42 | 1007.4 |
| 20260505233046 | 77 | 70 | 0.9 | 7.8 | 0.00 | 0.02 | 0.02 | 43 | 1007.5 |
| 20260505232532 | 78 | 196 | 1.7 | 7.8 | 0.00 | 0.02 | 0.02 | 42 | 1007.3 |
| 20260505232041 | 78 | 189 | 2.6 | 7.8 | 0.00 | 0.02 | 0.02 | 42 | 1007.4 |
| 20260505231557 | 78 | 121 | 0.9 | 6.1 | 0.00 | 0.02 | 0.02 | 43 | 1007.3 |
| 20260505231034 | 78 | 101 | 0.9 | 5.2 | 0.00 | 0.02 | 0.02 | 43 | 1007.2 |
| 20260505230533 | 79 | 341 | 0.9 | 5.2 | 0.00 | 0.02 | 0.02 | 42 | 1007.2 |
| 20260505230050 | 79 | 138 | 1.7 | 7.0 | 0.00 | 0.02 | 0.02 | 41 | 1007.1 |
| 20260505225536 | 80 | 223 | 2.6 | 10.4 | 0.00 | 0.02 | 0.02 | 39 | 1007.1 |
| 20260505225033 | 80 | 237 | 2.6 | 10.4 | 0.00 | 0.02 | 0.02 | 40 | 1007.1 |
| 20260505224549 | 80 | 10 | 1.7 | 10.4 | 0.00 | 0.02 | 0.02 | 40 | 1007.0 |
| 20260505224036 | 79 | 164 | 2.6 | 10.4 | 0.00 | 0.02 | 0.02 | 40 | 1006.9 |
| 20260505223533 | 79 | 103 | 3.5 | 13.9 | 0.00 | 0.02 | 0.02 | 41 | 1007.2 |
| 20260505223047 | 80 | 276 | 2.6 | 13.9 | 0.00 | 0.02 | 0.02 | 41 | 1007.0 |
| 20260505222533 | 80 | 188 | 3.5 | 12.2 | 0.00 | 0.02 | 0.02 | 40 | 1007.0 |
| 20260505222033 | 80 | 261 | 2.6 | 10.4 | 0.00 | 0.02 | 0.02 | 41 | 1006.9 |
| 20260505221543 | 80 | 292 | 3.5 | 10.4 | 0.00 | 0.02 | 0.02 | 41 | 1006.8 |
| 20260505221031 | 79 | 103 | 1.7 | 13.0 | 0.00 | 0.02 | 0.02 | 41 | 1006.8 |
| 20260505220533 | 80 | 135 | 2.6 | 13.0 | 0.00 | 0.02 | 0.02 | 41 | 1006.8 |
| 20260505220043 | 80 | 182 | 3.5 | 9.6 | 0.00 | 0.02 | 0.02 | 39 | 1006.9 |
| 20260505215534 | 81 | 32 | 2.6 | 9.6 | 0.00 | 0.02 | 0.02 | 39 | 1007.0 |
| 20260505215033 | 81 | 99 | 3.5 | 7.8 | 0.00 | 0.02 | 0.02 | 40 | 1006.8 |
| 20260505214606 | 82 | 297 | 2.6 | 13.0 | 0.00 | 0.02 | 0.02 | 39 | 1007.0 |
| 20260505214031 | 82 | 359 | 3.5 | 13.0 | 0.00 | 0.02 | 0.02 | 39 | 1006.8 |
| 20260505213531 | 82 | 51 | 2.6 | 10.4 | 0.00 | 0.02 | 0.02 | 38 | 1006.8 |
| 20260505213046 | 82 | 114 | 4.3 | 10.4 | 0.00 | 0.02 | 0.02 | 39 | 1006.9 |
| 20260505212533 | 82 | 198 | 1.7 | 10.4 | 0.00 | 0.02 | 0.02 | 39 | 1006.9 |
| 20260505212033 | 82 | 143 | 3.5 | 10.4 | 0.00 | 0.02 | 0.02 | 41 | 1006.7 |
| 20260505211549 | 82 | 102 | 2.6 | 13.0 | 0.00 | 0.02 | 0.02 | 39 | 1006.7 |
| 20260505211033 | 82 | 220 | 5.2 | 13.0 | 0.00 | 0.02 | 0.02 | 39 | 1006.7 |
| 20260505210532 | 83 | 79 | 2.6 | 10.4 | 0.00 | 0.02 | 0.02 | 37 | 1006.6 |
| 20260505210047 | 83 | 259 | 3.5 | 11.3 | 0.00 | 0.02 | 0.02 | 38 | 1006.6 |
| 20260505205532 | 83 | 174 | 2.6 | 11.3 | 0.00 | 0.02 | 0.02 | 38 | 1006.6 |
| 20260505205033 | 83 | 221 | 1.7 | 9.6 | 0.00 | 0.02 | 0.02 | 40 | 1006.6 |
| 20260505204547 | 83 | 277 | 4.3 | 16.5 | 0.00 | 0.02 | 0.02 | 38 | 1006.4 |
| 20260505204032 | 83 | 115 | 4.3 | 16.5 | 0.00 | 0.02 | 0.02 | 36 | 1006.4 |
| 20260505203532 | 84 | 243 | 2.6 | 13.0 | 0.00 | 0.02 | 0.02 | 37 | 1006.3 |
| 20260505203049 | 84 | 106 | 2.6 | 13.0 | 0.00 | 0.02 | 0.02 | 38 | 1006.5 |
| 20260505202533 | 83 | 254 | 3.5 | 13.0 | 0.00 | 0.02 | 0.02 | 38 | 1006.5 |
| 20260505202033 | 83 | 200 | 2.6 | 11.3 | 0.00 | 0.02 | 0.02 | 39 | 1006.4 |
| 20260505201546 | 83 | 103 | 2.6 | 7.8 | 0.00 | 0.02 | 0.02 | 38 | 1006.6 |
| 20260505201032 | 83 | 114 | 3.5 | 13.0 | 0.00 | 0.02 | 0.02 | 37 | 1006.5 |
| 20260505200532 | 83 | 153 | 3.5 | 13.0 | 0.00 | 0.02 | 0.02 | 38 | 1006.8 |
| 20260505200056 | 83 | 264 | 3.5 | 13.0 | 0.00 | 0.02 | 0.02 | 38 | 1006.7 |
| 20260505195534 | 83 | 167 | 2.6 | 13.0 | 0.00 | 0.02 | 0.02 | 36 | 1006.6 |
| 20260505195036 | 83 | 290 | 3.5 | 13.0 | 0.00 | 0.02 | 0.02 | 37 | 1006.6 |
| 20260505194541 | 83 | 139 | 4.3 | 13.0 | 0.00 | 0.02 | 0.02 | 37 | 1006.7 |
| 20260505194032 | 83 | 141 | 3.5 | 11.3 | 0.00 | 0.02 | 0.02 | 38 | 1006.8 |
| 20260505193532 | 84 | 166 | 3.5 | 11.3 | 0.00 | 0.02 | 0.02 | 36 | 1006.7 |
| 20260505193050 | 84 | 170 | 3.5 | 7.8 | 0.00 | 0.02 | 0.02 | 37 | 1006.7 |
| 20260505192533 | 84 | 293 | 2.6 | 7.8 | 0.00 | 0.02 | 0.02 | 35 | 1006.7 |
| 20260505192032 | 84 | 145 | 1.7 | 12.2 | 0.00 | 0.02 | 0.02 | 36 | 1006.7 |
| 20260505191546 | 84 | 152 | 4.3 | 12.2 | 0.00 | 0.02 | 0.02 | 35 | 1006.7 |
| 20260505191032 | 84 | 149 | 2.6 | 12.2 | 0.00 | 0.02 | 0.02 | 37 | 1006.7 |
| 20260505190534 | 84 | 91 | 3.5 | 12.2 | 0.00 | 0.02 | 0.02 | 37 | 1006.8 |
| 20260505190047 | 84 | 248 | 3.5 | 11.3 | 0.00 | 0.02 | 0.02 | 36 | 1007.2 |
| 20260505185531 | 84 | 61 | 3.5 | 11.3 | 0.00 | 0.02 | 0.02 | 37 | 1007.0 |
| 20260505185035 | 84 | 172 | 3.5 | 16.5 | 0.00 | 0.02 | 0.02 | 39 | 1007.1 |
| 20260505184548 | 84 | 349 | 3.5 | 16.5 | 0.00 | 0.02 | 0.02 | 37 | 1007.1 |
| 20260505184033 | 84 | 58 | 4.3 | 14.8 | 0.00 | 0.02 | 0.02 | 37 | 1007.5 |
| 20260505183534 | 84 | 260 | 2.6 | 7.8 | 0.00 | 0.02 | 0.02 | 40 | 1007.3 |
| 20260505183057 | 84 | 61 | 0.9 | 10.4 | 0.00 | 0.02 | 0.02 | 39 | 1007.4 |
| 20260505182533 | 84 | 288 | 3.5 | 10.4 | 0.00 | 0.02 | 0.02 | 38 | 1007.4 |
| 20260505182035 | 84 | 186 | 2.6 | 10.4 | 0.00 | 0.02 | 0.02 | 40 | 1007.4 |
| 20260505181546 | 83 | 112 | 2.6 | 13.9 | 0.00 | 0.02 | 0.02 | 38 | 1007.5 |
| 20260505181031 | 83 | 254 | 3.5 | 13.9 | 0.00 | 0.02 | 0.02 | 37 | 1007.7 |
| 20260505180533 | 83 | 129 | 2.6 | 13.9 | 0.00 | 0.02 | 0.02 | 41 | 1007.7 |
| 20260505180051 | 82 | 321 | 3.5 | 9.6 | 0.00 | 0.02 | 0.02 | 40 | 1007.9 |
| 20260505175533 | 83 | 271 | 3.5 | 8.7 | 0.00 | 0.02 | 0.02 | 40 | 1007.9 |
| 20260505175032 | 83 | 120 | 1.7 | 8.7 | 0.00 | 0.02 | 0.02 | 41 | 1007.9 |
| 20260505174557 | 82 | 302 | 1.7 | 8.7 | 0.00 | 0.02 | 0.02 | 40 | 1007.9 |
| 20260505174033 | 83 | 84 | 2.6 | 8.7 | 0.00 | 0.02 | 0.02 | 43 | 1008.0 |
| 20260505173534 | 82 | 94 | 2.6 | 10.4 | 0.00 | 0.02 | 0.02 | 42 | 1008.0 |
| 20260505173041 | 82 | 349 | 3.5 | 10.4 | 0.00 | 0.02 | 0.02 | 45 | 1008.0 |
| 20260505172535 | 82 | 72 | 1.7 | 7.0 | 0.00 | 0.02 | 0.02 | 46 | 1008.1 |
| 20260505172033 | 82 | 281 | 1.7 | 8.7 | 0.00 | 0.02 | 0.02 | 42 | 1008.1 |
| 20260505171549 | 82 | 114 | 2.6 | 8.7 | 0.00 | 0.02 | 0.02 | 44 | 1008.0 |
| 20260505171033 | 82 | 227 | 2.6 | 9.6 | 0.00 | 0.02 | 0.02 | 46 | 1008.1 |
| 20260505170531 | 81 | 141 | 3.5 | 9.6 | 0.00 | 0.02 | 0.02 | 46 | 1008.2 |
| 20260505170046 | 81 | 232 | 2.6 | 6.1 | 0.00 | 0.02 | 0.02 | 46 | 1008.4 |
| 20260505165533 | 81 | 50 | 1.7 | 10.4 | 0.00 | 0.02 | 0.02 | 46 | 1008.4 |
| 20260505165032 | 81 | 253 | 3.5 | 10.4 | 0.00 | 0.02 | 0.02 | 43 | 1008.4 |
| 20260505164541 | 81 | 253 | 1.7 | 10.4 | 0.00 | 0.02 | 0.02 | 49 | 1008.6 |
| 20260505164032 | 80 | 295 | 0.9 | 10.4 | 0.00 | 0.02 | 0.02 | 46 | 1008.7 |
| 20260505163532 | 80 | 22 | 4.3 | 10.4 | 0.00 | 0.02 | 0.02 | 44 | 1008.7 |
| 20260505163041 | 80 | 278 | 1.7 | 10.4 | 0.00 | 0.02 | 0.02 | 45 | 1008.8 |